This is the latest recevied weather packets stored in our database for station/object N3FYI-5. If no packets are shown the sender has not sent any weather packets the latest 10 day(s).
| Time | Temp. | Humidity | Pressure | Rain* | Wind** | Luminosity | Snow |
|---|---|---|---|---|---|---|---|
| 1777525825 | 5.56° C | 55% | 1016.5 hPa | 0 mm | - | - | - |
| 1777525345 | 5.56° C | 55% | 1016.8 hPa | 0 mm | - | - | - |
| 1777524865 | 6.11° C | 55% | 1016.7 hPa | 0 mm | - | - | - |
| 1777524385 | 6.11° C | 55% | 1016.5 hPa | 0.25 mm | - | - | - |
| 1777523905 | 6.11° C | 55% | 1016.4 hPa | 0.25 mm | - | - | - |
| 1777523428 | 6.11° C | 55% | 1016.4 hPa | 0.25 mm | - | - | - |
| 1777522945 | 6.11° C | 55% | 1016.5 hPa | 0.25 mm | - | - | - |
| 1777522466 | 6.11° C | 55% | 1016.5 hPa | 0.25 mm | - | - | - |
| 1777521985 | 6.11° C | 55% | 1016.4 hPa | 0.51 mm | - | - | - |
| 1777521504 | 6.67° C | 55% | 1016.3 hPa | 1.52 mm | - | - | - |
| 1777521038 | 6.67° C | 55% | 1016.3 hPa | 1.52 mm | - | - | - |
| 1777520545 | 6.67° C | 55% | 1016.3 hPa | 1.27 mm | - | - | - |
| 1777520064 | 7.22° C | 55% | 1016.3 hPa | 1.27 mm | - | - | - |
| 1777519584 | 7.78° C | 54% | 1016.3 hPa | 1.27 mm | - | - | - |
| 1777519106 | 7.78° C | 53% | 1016.2 hPa | 1.27 mm | - | - | - |
| 1777518636 | 8.89° C | 51% | 1016 hPa | 1.27 mm | - | - | - |
| 1777518144 | 9.44° C | 51% | 1015.9 hPa | 1.02 mm | - | - | - |
| 1777517664 | 9.44° C | 51% | 1015.6 hPa | 0 mm | - | - | - |
| 1777517184 | 9.44° C | 51% | 1015.6 hPa | 0 mm | - | - | - |
| 1777516704 | 9.44° C | 51% | 1015.6 hPa | 0 mm | - | - | - |
| 1777516233 | 9.44° C | 51% | 1015.7 hPa | 0 mm | - | - | - |
| 1777515744 | 9.44° C | 51% | 1015.8 hPa | 0 mm | - | - | - |
| 1777515264 | 9.44° C | 51% | 1015.7 hPa | 0 mm | - | - | - |
| 1777514784 | 9.44° C | 51% | 1015.8 hPa | 0 mm | - | - | - |
| 1777514304 | 9.44° C | 51% | 1015.7 hPa | 0 mm | - | - | - |
* Rain latest hour (hover to see other rain measurements)
** Current wind speed in m/s (hover to see current wind gust speed)